[[{"header":{"parameterUnit":"m.s-1","parameterCategory":1,"la1":30.2991,"la2":30.254,"lo1":-89.0895,"lo2":-89.0444,"dy":0.0017,"dx":0.0017,"nx":28,"ny":28,"refTime":"2024-04-18T03:00:00:Z","depth":0,"parameterNumber":2,"parameterNumberName":"U-component_of_WINDS"},"data":[0,0,0,0,0,0,0,0,0,0,0,0,0,0,0,0,0,0,0,0,0,0,0,0,0,0,0,0,0,0,0,0,0,0,0,0,0,0,0,0,0,0,0,0,0,0,0,0,0,0,0,0,0,0,0,0,0,0,-2.7322,-2.7321,0,-2.7242,-2.7241,-2.724,-2.7158,-2.7157,-2.7155,-2.7154,-2.707,-2.7069,-2.7067,0,0,0,0,0,0,0,0,0,0,0,0,0,-2.7404,-2.7403,-2.7322,-2.7321,-2.732,-2.7242,-2.7241,-2.724,-2.7158,-2.7156,-2.7155,-2.7154,-2.707,-2.7069,-2.7067,0,0,0,0,0,0,0,0,0,0,0,0,0,-2.735,-2.7402,-2.7322,-2.727,-2.7264,-2.7242,-2.7241,-2.7239,-2.7158,-2.7156,-2.7155,-2.7153,-2.7071,-2.7069,-2.7067,-2.7089,0,0,-2.7061,-2.7061,0,0,0,0,0,0,0,0,-2.7353,-2.7347,-2.7279,-2.7273,-2.7267,-2.7208,-2.7238,-2.7189,-2.7159,-2.7198,-2.7154,-2.7152,-2.7117,-2.7111,-2.71,-2.7085,-2.7081,-2.7061,-2.706,-2.7059,-2.7059,0,0,0,0,0,0,0,-2.7357,-2.735,-2.729,-2.7278,-2.7271,-2.725,-2.7241,-2.7228,-2.7168,-2.7195,-2.7189,-2.718,-2.7113,-2.7102,-2.7097,-2.708,-2.7061,-2.706,-2.7059,-2.7058,-2.708,-2.7081,0,0,0,0,0,0,-2.7369,-2.7354,-2.7293,-2.7288,-2.7307,-2.725,-2.7239,-2.7229,-2.7168,-2.7157,-2.7182,-2.7177,-2.7106,-2.7099,-2.7094,-2.7115,-2.7059,-2.7058,-2.7057,-2.7078,-2.708,-2.7082,0,0,0,0,0,0,-2.7371,-2.7364,-2.7296,-2.7319,-2.7309,-2.725,-2.7239,-2.7228,-2.7216,-2.7158,-2.7147,-2.7181,-2.7104,-2.7096,-2.7091,-2.7111,-2.7057,-2.7055,-2.7076,-2.7079,-2.7081,-2.7158,0,0,0,0,0,0,-2.7374,-2.7366,-2.7373,-2.732,-2.7308,-2.7295,-2.724,-2.7228,-2.7213,-2.7206,-2.7154,-2.7144,-2.7102,-2.7094,-2.7089,-2.7107,-2.7054,-2.7074,-2.7077,-2.708,-2.7154,-2.7163,-2.7171,0,0,0,0,0,-2.7377,-2.7398,-2.7374,-2.7367,-2.7317,-2.7296,-2.7289,-2.7241,-2.7215,-2.7222,-2.7186,-2.7146,-2.711,-2.7094,-2.7088,-2.7106,-2.7072,-2.7076,-2.708,-2.715,-2.7161,-2.7171,0,0,0,0,0,0,-2.7454,-2.739,-2.7363,-2.7367,-2.7338,-2.7283,-2.729,-2.7255,-2.7232,-2.7226,-2.7167,-2.7156,-2.7157,-2.7131,-2.7115,-2.7124,-2.7086,-2.7088,-2.7141,-2.7151,-2.716,-2.7166,-2.7052,0,0,0,0,0,-2.7472,-2.7461,-2.7406,-2.7415,-2.7402,-2.7349,-2.7338,-2.7304,-2.7271,-2.7258,-2.722,-2.7189,-2.7171,-2.716,-2.714,-2.715,-2.7138,-2.716,-2.7169,-2.7176,-2.7179,-2.7182,-2.7191,-2.7094,-2.7094,-2.7094,0,0,-2.7508,-2.7471,-2.7468,-2.7429,-2.7403,-2.7392,-2.7339,-2.733,-2.7322,-2.7256,-2.7249,-2.7221,-2.7182,-2.7185,-2.7184,-2.7163,-2.7203,-2.7181,-2.7188,-2.7186,-2.7187,-2.7196,-2.7204,-2.7097,-2.7096,-2.7096,0,0,-2.7568,-2.754,-2.7544,-2.7519,-2.748,-2.7445,-2.7446,-2.7397,-2.7375,-2.7368,-2.7318,-2.7308,-2.7278,-2.7252,-2.7235,-2.7288,-2.725,-2.7284,-2.7329,-2.7333,-2.734,-2.7347,-2.7365,-2.7372,-2.7287,-2.7287,-2.7287,0,-2.7617,-2.76,-2.7551,-2.7545,-2.753,-2.7472,-2.7475,-2.7453,-2.741,-2.74,-2.7378,-2.7339,-2.7309,-2.7305,-2.7318,-2.7307,-2.7306,-2.7288,-2.7344,-2.7349,-2.7355,-2.7371,-2.7378,-2.7291,-2.7291,-2.729,-2.729,0,-2.7662,-2.7652,-2.766,-2.762,-2.7606,-2.7605,-2.7555,-2.7547,-2.7515,-2.7482,-2.7475,-2.7438,-2.7409,-2.7406,-2.7374,-2.7397,-2.7386,-2.7355,-2.7314,-2.7369,-2.7383,-2.7389,-2.7297,-2.7296,-2.7294,-2.7293,0,0,-2.7766,-2.7701,-2.7704,-2.7686,-2.7639,-2.763,-2.7627,-2.76,-2.7594,-2.7566,-2.7561,-2.7539,-2.751,-2.7491,-2.7456,-2.746,-2.7503,-2.7428,-2.7426,-2.7442,-2.7526,-2.7549,-2.7557,-2.7479,-2.748,-2.7481,-2.7529,0,-2.7817,-2.7808,-2.7765,-2.7769,-2.7758,-2.7704,-2.7702,-2.7673,-2.7643,-2.7629,-2.7596,-2.758,-2.7544,-2.7532,-2.7534,-2.7498,-2.7519,-2.7494,-2.7473,-2.7473,-2.7483,-2.7565,-2.7588,-2.7635,-2.7535,-2.7536,-2.7536,0,-2.7874,-2.7852,-2.7855,-2.781,-2.7804,-2.7802,-2.7774,-2.7762,-2.7729,-2.7707,-2.7687,-2.7648,-2.7642,-2.7606,-2.7596,-2.758,-2.757,-2.7551,-2.7552,-2.7546,-2.7507,-2.756,-2.7649,-2.7656,-2.7545,-2.7544,-2.7543,0,-2.7949,-2.7919,-2.7917,-2.7903,-2.785,-2.7851,-2.7828,-2.7793,-2.778,-2.7756,-2.7747,-2.7723,-2.7709,-2.7691,-2.7646,-2.7625,-2.7642,-2.7602,-2.7622,-2.7623,-2.7626,-2.7626,-2.7713,-2.7623,-2.7623,-2.7622,-2.7622,0,-2.8009,-2.8013,-2.795,-2.7949,-2.7952,-2.7902,-2.7906,-2.7879,-2.7848,-2.784,-2.7793,-2.7786,-2.7729,-2.7716,-2.7682,-2.7678,-2.7673,-2.7654,-2.7645,-2.7657,-2.766,-2.7648,-2.7643,-2.7624,-2.7624,-2.7624,-2.7623,0,-2.8091,-2.8049,-2.8044,-2.7995,-2.7983,-2.7987,-2.7945,-2.7942,-2.791,-2.7901,-2.7896,-2.7845,-2.7828,-2.7783,-2.7753,-2.773,-2.7736,-2.7719,-2.7747,-2.7741,-2.7763,-2.7761,-2.7844,-2.7852,-2.7758,-2.7759,-2.776,0,-2.8132,-2.8134,-2.8086,-2.8077,-2.8058,-2.8045,-2.8032,-2.7984,-2.7972,-2.7935,-2.7936,-2.7915,-2.7895,-2.787,-2.783,-2.7807,-2.7789,-2.782,-2.7785,-2.7798,-2.7788,-2.7788,-2.7787,-2.7827,-2.7828,-2.7829,-2.783,0,-2.8208,-2.8187,-2.817,-2.8147,-2.8133,-2.8112,-2.8088,-2.8084,-2.803,-2.8019,-2.8001,-2.7986,-2.7957,-2.7936,-2.7908,-2.7884,-2.7848,-2.7842,-2.7845,-2.7857,-2.7873,-2.7863,-2.7766,-2.7839,-2.7838,-2.7838,-2.7837,-2.7837,-2.8269,-2.8268,-2.8235,-2.8218,-2.8195,-2.8175,-2.8169,-2.8138,-2.8122,-2.8095,-2.8067,-2.8052,-2.8019,-2.7977,-2.7957,-2.7944,-2.7925,-2.793,-2.7931,-2.7932,-2.7938,-2.7877,-2.7939,-2.7938,-2.7938,-2.7938,-2.7938,0,-2.8341,-2.8317,-2.8303,-2.8272,-2.8259,-2.8228,-2.82,-2.8191,-2.8178,-2.8151,-2.8134,-2.8113,-2.8093,-2.8053,-2.803,-2.8027,-2.801,-2.8023,-2.8021,-2.8016,-2.7957,-2.7956,-2.8037,-2.8037,-2.8037,-2.8037,-2.8037,-2.8037,-2.8377,-2.8374,-2.835,-2.8336,-2.8312,-2.8297,-2.8284,-2.8265,-2.8243,-2.8223,-2.8206,-2.8181,-2.8148,-2.8122,-2.8103,-2.8092,-2.8085,-2.8102,-2.8086,-2.803,-2.8021,-2.8012,-2.801,-2.8102,-2.8102,-2.8146,-2.8147,-2.8147]},{"header":{"parameterUnit":"m.s-1","parameterCategory":1,"la1":30.2991,"la2":30.254,"lo1":-89.0895,"lo2":-89.0444,"dy":0.0017,"dx":0.0017,"nx":28,"ny":28,"refTime":"2024-04-18T03:00:00:Z","depth":0,"parameterNumber":3,"parameterNumberName":"V-component_of_WINDS"},"data":[0,0,0,0,0,0,0,0,0,0,0,0,0,0,0,0,0,0,0,0,0,0,0,0,0,0,0,0,0,0,0,0,0,0,0,0,0,0,0,0,0,0,0,0,0,0,0,0,0,0,0,0,0,0,0,0,0,0,0.978,0.9781,0,0.9841,0.9842,0.9842,0.9892,0.9893,0.9893,0.9894,0.9955,0.9956,0.9957,0,0,0,0,0,0,0,0,0,0,0,0,0,0.9709,0.971,0.978,0.9781,0.9782,0.9841,0.9842,0.9842,0.9892,0.9893,0.9893,0.9894,0.9954,0.9956,0.9957,0,0,0,0,0,0,0,0,0,0,0,0,0,0.9752,0.9711,0.978,0.9814,0.9817,0.9841,0.9842,0.9843,0.9892,0.9893,0.9894,0.9894,0.9954,0.9956,0.9957,0.9952,0,0,0.9963,0.9963,0,0,0,0,0,0,0,0,0.975,0.9755,0.9808,0.9811,0.9816,0.986,0.9839,0.9879,0.9892,0.9864,0.9894,0.9895,0.9923,0.9927,0.9936,0.9955,0.9957,0.9963,0.9964,0.9964,0.9965,0,0,0,0,0,0,0,0.9746,0.9752,0.9804,0.9809,0.9813,0.9826,0.9833,0.9847,0.9888,0.9866,0.987,0.9876,0.9925,0.9935,0.9938,0.9958,0.9963,0.9964,0.9965,0.9966,0.9978,0.9977,0,0,0,0,0,0,0.9738,0.9749,0.9802,0.9806,0.9784,0.9827,0.9835,0.9845,0.9888,0.9895,0.9876,0.9878,0.9931,0.9936,0.9941,0.9938,0.9964,0.9966,0.9967,0.9979,0.9978,0.9977,0,0,0,0,0,0,0.9737,0.9743,0.98,0.9779,0.9787,0.9827,0.9838,0.9846,0.9856,0.9895,0.9903,0.9878,0.9932,0.9938,0.9949,0.9941,0.9967,0.9968,0.998,0.9978,0.9977,0.9933,0,0,0,0,0,0,0.9734,0.9742,0.9739,0.9778,0.9788,0.9807,0.9838,0.9846,0.9858,0.9863,0.9899,0.9906,0.9933,0.9947,0.9951,0.9944,0.997,0.998,0.9979,0.9978,0.9935,0.993,0.9926,0,0,0,0,0,0.9732,0.9724,0.9739,0.9745,0.9786,0.9806,0.9812,0.9843,0.9857,0.9856,0.9882,0.9905,0.9942,0.9947,0.9953,0.9946,0.9981,0.9979,0.9978,0.9937,0.9931,0.9926,0,0,0,0,0,0,0.9682,0.9729,0.9747,0.9751,0.9774,0.9815,0.9814,0.9836,0.9855,0.9858,0.9897,0.9905,0.9912,0.993,0.9936,0.9944,0.9965,0.9964,0.9932,0.9926,0.9922,0.9917,0.9971,0,0,0,0,0,0.9671,0.9684,0.9725,0.9725,0.9736,0.9773,0.9783,0.9805,0.9831,0.9841,0.9867,0.9891,0.9908,0.9919,0.9936,0.9939,0.9948,0.9937,0.9933,0.9929,0.9927,0.9932,0.9928,0.9972,0.9972,0.9972,0,0,0.965,0.9677,0.9682,0.9716,0.9736,0.9749,0.978,0.9792,0.9802,0.9842,0.9855,0.9875,0.9905,0.9912,0.9916,0.9928,0.9918,0.9927,0.9923,0.9924,0.993,0.9925,0.9922,0.9971,0.9971,0.9971,0,0,0.9617,0.9638,0.9642,0.9662,0.9694,0.9719,0.972,0.9757,0.9773,0.9786,0.9818,0.983,0.9859,0.9879,0.9893,0.9871,0.9893,0.9876,0.9852,0.9856,0.9852,0.9849,0.9842,0.9839,0.9875,0.9874,0.9874,0,0.9585,0.9605,0.964,0.965,0.9665,0.9704,0.9708,0.9726,0.9761,0.9771,0.9783,0.9821,0.9843,0.9856,0.9851,0.9861,0.9864,0.9871,0.985,0.9847,0.9845,0.9838,0.9836,0.9872,0.9872,0.9873,0.9873,0,0.9566,0.958,0.9578,0.9613,0.9627,0.9634,0.9671,0.9681,0.9704,0.9728,0.9742,0.9771,0.9796,0.9801,0.9822,0.9818,0.9824,0.9843,0.9863,0.9838,0.9832,0.983,0.9869,0.987,0.987,0.9871,0,0,0.9501,0.9556,0.9555,0.9572,0.9611,0.9622,0.9632,0.9658,0.9666,0.969,0.97,0.9724,0.9743,0.9758,0.9783,0.9786,0.9768,0.9805,0.9806,0.9797,0.9766,0.9752,0.9748,0.9784,0.9784,0.9783,0.9764,0,0.9474,0.9493,0.9526,0.9535,0.9549,0.9587,0.9596,0.9621,0.9645,0.9661,0.9687,0.9704,0.9726,0.9736,0.9742,0.9769,0.9762,0.9771,0.9793,0.9794,0.9784,0.9745,0.9729,0.971,0.9762,0.9762,0.9762,0,0.9444,0.9467,0.9477,0.9517,0.9524,0.9531,0.9559,0.9573,0.9603,0.962,0.9639,0.9667,0.968,0.97,0.972,0.9725,0.9737,0.9752,0.9752,0.9754,0.9775,0.9747,0.9704,0.9701,0.9758,0.9759,0.9759,0,0.9396,0.9429,0.944,0.9454,0.95,0.9505,0.9524,0.9556,0.957,0.9594,0.9603,0.9628,0.9642,0.9661,0.9695,0.9706,0.9711,0.9734,0.9726,0.9725,0.9724,0.9724,0.9682,0.9733,0.9733,0.9733,0.9733,0,0.9362,0.9367,0.942,0.9426,0.9433,0.9472,0.9479,0.9502,0.953,0.9543,0.9578,0.9589,0.9633,0.965,0.9677,0.9689,0.9695,0.971,0.9717,0.9706,0.9704,0.9713,0.9715,0.9732,0.9732,0.9732,0.9732,0,0.9309,0.9344,0.9358,0.9403,0.9414,0.9417,0.9455,0.9464,0.9491,0.9506,0.9512,0.9554,0.9576,0.9612,0.9644,0.9662,0.967,0.9681,0.9659,0.9663,0.9654,0.9654,0.9616,0.9614,0.9665,0.9665,0.9664,0,0.9284,0.9289,0.9334,0.9345,0.9364,0.9381,0.9396,0.9436,0.945,0.9486,0.9491,0.9515,0.9537,0.957,0.9604,0.9629,0.9641,0.9627,0.9645,0.9635,0.9641,0.964,0.9641,0.9622,0.9621,0.962,0.962,0,0.9237,0.9255,0.9275,0.9302,0.9319,0.9342,0.9366,0.9374,0.9419,0.9434,0.9457,0.9473,0.9507,0.9531,0.9562,0.9583,0.9609,0.9614,0.9614,0.9603,0.9589,0.9597,0.9647,0.9614,0.9615,0.9615,0.9616,0.9616,0.9198,0.9204,0.9238,0.9259,0.9283,0.9305,0.9316,0.9345,0.9365,0.9395,0.9418,0.944,0.9473,0.9516,0.9536,0.9554,0.9566,0.9565,0.9565,0.9564,0.956,0.9587,0.956,0.956,0.9561,0.9561,0.9561,0,0.9153,0.9177,0.9196,0.923,0.9248,0.9272,0.9302,0.9315,0.9333,0.9362,0.9383,0.941,0.9435,0.9471,0.9499,0.9507,0.9519,0.9512,0.9512,0.9517,0.9548,0.9546,0.9502,0.9502,0.9502,0.9502,0.9502,0.9502,0.9131,0.9144,0.9167,0.9192,0.9217,0.9238,0.9253,0.9275,0.9298,0.9327,0.9348,0.9372,0.9404,0.9435,0.9458,0.9469,0.9477,0.9466,0.948,0.9509,0.9514,0.9519,0.9517,0.9468,0.9468,0.9447,0.9447,0.9447]}]]